User: anonymous   Login
Location: Breitenfeld
(46.8500°N, 15.6333°E)
Time: 17:12:00
(UTC+00:00)
Language:

Abrixas rocket - Orbit

View from above orbital plane
View from above orbital plane
View from above satellite
View from above satellite

Ground track
Ground track

The orbit data is extracted from the following two-line orbital elements,

1 25723U 99022C   20184.75664560 +.00012587 +00000-0 +87712-4 0  9997
2 25723 048.4107 280.1785 0004133 041.2285 318.8980 15.74657230180072
Epoch (UTC): 02 July 2020 18:09:34
Eccentricity: 0.0004133
inclination: 48.4107°
perigee height: 343 km
apogee height: 348 km
right ascension of ascending node: 280.1785°
argument of perigee: 41.2285°
revolutions per day: 15.74657230
mean anomaly at epoch: 318.8980°
orbit number at epoch: 18007

The dashed part of the orbit path shows where the satellite is in the earth's shadow,  

DLR